,,PressureMeas_1m,,PRMeasQMR101_1,,RHStat155_1m_1,,SRMeasQMS101R_1m,,TAStat155_1m_1,,GenWind_1,,GenWind_1,
2018-12-22, 00:00:06,VALID,918.701,VALID,0.0,VALID,94.724,VALID,-0.022,VALID,20.719,VALID,93.0,VALID,0.0,
2018-12-22, 00:01:06,VALID,918.706,VALID,0.0,VALID,94.91,VALID,-0.029,VALID,20.715,VALID,88.0,VALID,0.0,
2018-12-22, 00:02:06,VALID,918.704,VALID,0.0,VALID,95.275,VALID,-0.033,VALID,20.685,VALID,100.0,VALID,0.0,
2018-12-22, 00:03:06,VALID,918.71,VALID,0.0,VALID,95.765,VALID,-0.046,VALID,20.667,VALID,109.0,VALID,0.0,
2018-12-22, 00:04:06,VALID,918.689,VALID,0.0,VALID,96.312,VALID,-0.036,VALID,20.642,VALID,100.0,VALID,0.0,
2018-12-22, 00:05:06,VALID,918.684,VALID,0.0,VALID,96.538,VALID,-0.04,VALID,20.597,VALID,104.0,VALID,0.0,
2018-12-22, 00:06:06,VALID,918.676,VALID,0.0,VALID,96.994,VALID,-0.031,VALID,20.601,VALID,106.0,VALID,0.0,
2018-12-22, 00:07:06,VALID,918.704,VALID,0.0,VALID,97.278,VALID,-0.019,VALID,20.574,VALID,121.0,VALID,0.0,
2018-12-22, 00:08:06,VALID,918.696,VALID,0.0,VALID,97.473,VALID,-0.043,VALID,20.56,VALID,123.0,VALID,0.0,
2018-12-22, 00:09:06,VALID,918.694,VALID,0.0,VALID,97.526,VALID,-0.046,VALID,20.541,VALID,122.0,VALID,0.0,
2018-12-22, 00:10:06,VALID,918.696,VALID,0.0,VALID,97.598,VALID,-0.042,VALID,20.535,VALID,122.0,VALID,0.0,
2018-12-22, 00:11:06,VALID,918.681,VALID,0.0,VALID,97.662,VALID,0.035,VALID,20.548,VALID,125.0,VALID,0.0,
2018-12-22, 00:12:06,VALID,918.669,VALID,0.0,VALID,97.735,VALID,0.038,VALID,20.569,VALID,138.0,VALID,0.0,
2018-12-22, 00:13:06,VALID,918.659,VALID,0.0,VALID,97.616,VALID,0.028,VALID,20.549,VALID,144.0,VALID,0.0,
2018-12-22, 00:14:06,VALID,918.638,VALID,0.0,VALID,97.425,VALID,0.021,VALID,20.534,VALID,150.0,VALID,0.0,
2018-12-22, 00:15:06,VALID,918.64,VALID,0.0,VALID,97.495,VALID,0.012,VALID,20.563,VALID,149.0,VALID,0.0,
2018-12-22, 00:16:06,VALID,918.635,VALID,0.0,VALID,97.524,VALID,0.018,VALID,20.579,VALID,141.0,VALID,0.0,
2018-12-22, 00:17:06,VALID,918.641,VALID,0.0,VALID,97.484,VALID,0.026,VALID,20.601,VALID,141.0,VALID,0.0,
2018-12-22, 00:18:06,VALID,918.651,VALID,0.0,VALID,97.35,VALID,0.045,VALID,20.594,VALID,134.0,VALID,0.0,
2018-12-22, 00:19:06,VALID,918.629,VALID,0.0,VALID,97.15,VALID,0.035,VALID,20.58,VALID,123.0,VALID,0.0,
2018-12-22, 00:20:06,VALID,918.625,VALID,0.0,VALID,97.163,VALID,0.032,VALID,20.62,VALID,124.0,VALID,0.0,
2018-12-22, 00:21:06,VALID,918.619,VALID,0.0,VALID,97.044,VALID,0.035,VALID,20.629,VALID,124.0,VALID,0.0,
2018-12-22, 00:22:06,VALID,918.613,VALID,0.0,VALID,97.082,VALID,0.029,VALID,20.619,VALID,98.0,VALID,0.0,
2018-12-22, 00:23:06,VALID,918.603,VALID,0.0,VALID,96.82,VALID,0.03,VALID,20.552,VALID,89.0,VALID,0.0,
2018-12-22, 00:24:06,VALID,918.592,VALID,0.0,VALID,96.846,VALID,0.031,VALID,20.528,VALID,93.0,VALID,0.0,
2018-12-22, 00:25:06,VALID,918.571,VALID,0.0,VALID,96.969,VALID,0.027,VALID,20.504,VALID,93.0,VALID,0.0,
2018-12-22, 00:26:06,VALID,918.555,VALID,0.0,VALID,97.054,VALID,-0.018,VALID,20.489,VALID,84.0,VALID,0.0,
2018-12-22, 00:27:06,VALID,918.545,VALID,0.0,VALID,97.155,VALID,0.006,VALID,20.493,VALID,87.0,VALID,0.0,
2018-12-22, 00:28:06,VALID,918.542,VALID,0.0,VALID,96.831,VALID,-0.005,VALID,20.453,VALID,90.0,VALID,0.0,
2018-12-22, 00:29:06,VALID,918.538,VALID,0.0,VALID,96.574,VALID,0.026,VALID,20.462,VALID,96.0,VALID,0.0,
2018-12-22, 00:30:06,VALID,918.532,VALID,0.0,VALID,96.302,VALID,0.016,VALID,20.476,VALID,100.0,VALID,0.0,
2018-12-22, 00:31:06,VALID,918.528,VALID,0.0,VALID,96.099,VALID,0.023,VALID,20.483,VALID,100.0,VALID,0.0,
2018-12-22, 00:32:06,VALID,918.515,VALID,0.0,VALID,96.007,VALID,0.014,VALID,20.49,VALID,105.0,VALID,0.0,
2018-12-22, 00:33:06,VALID,918.495,VALID,0.0,VALID,96.006,VALID,0.033,VALID,20.497,VALID,109.0,VALID,0.0,
2018-12-22, 00:34:06,VALID,918.493,VALID,0.0,VALID,96.236,VALID,0.013,VALID,20.52,VALID,115.0,VALID,0.0,
2018-12-22, 00:35:06,VALID,918.471,VALID,0.0,VALID,96.694,VALID,0.011,VALID,20.556,VALID,123.0,VALID,0.0,
2018-12-22, 00:36:06,VALID,918.45,VALID,0.0,VALID,97.093,VALID,0.019,VALID,20.562,VALID,129.0,VALID,0.0,
2018-12-22, 00:37:06,VALID,918.409,VALID,0.0,VALID,97.451,VALID,0.015,VALID,20.561,VALID,130.0,VALID,0.0,
2018-12-22, 00:38:06,VALID,918.394,VALID,0.0,VALID,97.663,VALID,0.013,VALID,20.557,VALID,126.0,VALID,0.0,
2018-12-22, 00:39:06,VALID,918.383,VALID,0.0,VALID,97.739,VALID,0.01,VALID,20.545,VALID,127.0,VALID,0.0,
2018-12-22, 00:40:06,VALID,918.37,VALID,0.0,VALID,97.795,VALID,0.005,VALID,20.535,VALID,123.0,VALID,0.0,
2018-12-22, 00:41:06,VALID,918.354,VALID,0.0,VALID,97.775,VALID,0.003,VALID,20.515,VALID,121.0,VALID,0.0,
2018-12-22, 00:42:06,VALID,918.345,VALID,0.0,VALID,97.809,VALID,0.021,VALID,20.48,VALID,129.0,VALID,0.0,
2018-12-22, 00:43:06,VALID,918.329,VALID,0.0,VALID,97.939,VALID,0.006,VALID,20.48,VALID,126.0,VALID,0.0,
2018-12-22, 00:44:06,VALID,918.299,VALID,0.0,VALID,97.99,VALID,0.015,VALID,20.457,VALID,126.0,VALID,0.0,
2018-12-22, 00:45:06,VALID,918.309,VALID,0.0,VALID,98.096,VALID,0.014,VALID,20.448,VALID,129.0,VALID,0.0,
2018-12-22, 00:46:06,VALID,918.288,VALID,0.0,VALID,98.178,VALID,0.024,VALID,20.451,VALID,134.0,VALID,0.0,
2018-12-22, 00:47:06,VALID,918.269,VALID,0.0,VALID,98.23,VALID,0.035,VALID,20.46,VALID,132.0,VALID,0.0,
2018-12-22, 00:48:06,VALID,918.255,VALID,0.0,VALID,98.21,VALID,0.013,VALID,20.473,VALID,128.0,VALID,0.0,
2018-12-22, 00:49:06,VALID,918.247,VALID,0.0,VALID,98.112,VALID,0.012,VALID,20.464,VALID,131.0,VALID,0.0,
2018-12-22, 00:50:06,VALID,918.226,VALID,0.0,VALID,98.06,VALID,0.027,VALID,20.472,VALID,129.0,VALID,0.0,
2018-12-22, 00:51:06,VALID,918.22,VALID,0.0,VALID,97.968,VALID,0.023,VALID,20.5,VALID,131.0,VALID,0.0,
2018-12-22, 00:52:06,VALID,918.207,VALID,0.0,VALID,97.902,VALID,0.008,VALID,20.526,VALID,126.0,VALID,0.0,
2018-12-22, 00:53:06,VALID,918.195,VALID,0.0,VALID,97.772,VALID,0.006,VALID,20.52,VALID,125.0,VALID,0.0,
2018-12-22, 00:54:06,VALID,918.188,VALID,0.0,VALID,97.715,VALID,0.032,VALID,20.519,VALID,113.0,VALID,0.0,
2018-12-22, 00:55:06,VALID,918.16,VALID,0.0,VALID,97.507,VALID,0.019,VALID,20.525,VALID,108.0,VALID,0.0,
2018-12-22, 00:56:06,VALID,918.155,VALID,0.0,VALID,97.216,VALID,-0.001,VALID,20.529,VALID,98.0,VALID,0.0,
2018-12-22, 00:57:06,VALID,918.141,VALID,0.0,VALID,97.019,VALID,0.003,VALID,20.553,VALID,98.0,VALID,0.0,
2018-12-22, 00:58:06,VALID,918.152,VALID,0.0,VALID,96.824,VALID,-0.003,VALID,20.577,VALID,101.0,VALID,0.0,
2018-12-22, 00:59:06,VALID,918.131,VALID,0.0,VALID,96.686,VALID,0.009,VALID,20.605,VALID,102.0,VALID,0.0,
2018-12-22, 01:00:06,VALID,918.129,VALID,0.0,VALID,96.548,VALID,0.001,VALID,20.626,VALID,95.0,VALID,0.0,
2018-12-22, 01:01:06,VALID,918.13,VALID,0.0,VALID,96.299,VALID,-0.007,VALID,20.628,VALID,101.0,VALID,0.0,
2018-12-22, 01:02:06,VALID,918.12,VALID,0.0,VALID,96.329,VALID,-0.003,VALID,20.66,VALID,102.0,VALID,0.0,
2018-12-22, 01:03:06,VALID,918.108,VALID,0.0,VALID,96.328,VALID,-0.009,VALID,20.694,VALID,110.0,VALID,0.0,
2018-12-22, 01:04:06,VALID,918.104,VALID,0.0,VALID,96.143,VALID,0.005,VALID,20.702,VALID,112.0,VALID,0.0,
2018-12-22, 01:05:06,VALID,918.08,VALID,0.0,VALID,96.203,VALID,-0.015,VALID,20.724,VALID,112.0,VALID,0.0,
2018-12-22, 01:06:06,VALID,918.041,VALID,0.0,VALID,96.032,VALID,0.006,VALID,20.709,VALID,101.0,VALID,0.0,
2018-12-22, 01:07:06,VALID,918.024,VALID,0.0,VALID,95.866,VALID,-0.01,VALID,20.674,VALID,101.0,VALID,0.0,
2018-12-22, 01:08:06,VALID,917.994,VALID,0.0,VALID,95.945,VALID,-0.001,VALID,20.651,VALID,101.0,VALID,0.0,
2018-12-22, 01:09:06,VALID,917.982,VALID,0.0,VALID,96.117,VALID,-0.017,VALID,20.653,VALID,106.0,VALID,0.0,
2018-12-22, 01:10:06,VALID,917.972,VALID,0.0,VALID,96.132,VALID,0.006,VALID,20.666,VALID,103.0,VALID,0.0,
2018-12-22, 01:11:06,VALID,917.951,VALID,0.0,VALID,96.005,VALID,0.005,VALID,20.667,VALID,102.0,VALID,0.0,
2018-12-22, 01:12:06,VALID,917.962,VALID,0.0,VALID,96.007,VALID,-0.011,VALID,20.67,VALID,112.0,VALID,0.0,
2018-12-22, 01:13:06,VALID,917.964,VALID,0.0,VALID,96.016,VALID,-0.004,VALID,20.657,VALID,113.0,VALID,0.0,
2018-12-22, 01:14:06,VALID,917.97,VALID,0.0,VALID,96.125,VALID,0.002,VALID,20.669,VALID,112.0,VALID,0.0,
2018-12-22, 01:15:06,VALID,918.011,VALID,0.0,VALID,96.055,VALID,-0.013,VALID,20.694,VALID,115.0,VALID,0.0,
2018-12-22, 01:16:06,VALID,918.033,VALID,0.0,VALID,95.938,VALID,-0.022,VALID,20.75,VALID,117.0,VALID,1.826,
2018-12-22, 01:17:06,VALID,918.066,VALID,0.0,VALID,95.735,VALID,-0.02,VALID,20.788,VALID,120.0,VALID,0.447,
2018-12-22, 01:18:06,VALID,918.068,VALID,0.0,VALID,95.634,VALID,-0.011,VALID,20.802,VALID,121.0,VALID,0.0,
2018-12-22, 01:19:06,VALID,918.095,VALID,0.0,VALID,95.515,VALID,-0.002,VALID,20.84,VALID,120.0,VALID,0.0,
2018-12-22, 01:20:06,VALID,918.095,VALID,0.0,VALID,95.253,VALID,0.002,VALID,20.877,VALID,128.0,VALID,0.0,
2018-12-22, 01:21:06,VALID,918.113,VALID,0.0,VALID,95.0,VALID,0.01,VALID,20.906,VALID,126.0,VALID,0.0,
2018-12-22, 01:22:06,VALID,918.103,VALID,0.0,VALID,94.797,VALID,-0.002,VALID,20.932,VALID,124.0,VALID,0.0,
2018-12-22, 01:23:06,VALID,918.127,VALID,0.0,VALID,94.635,VALID,-0.009,VALID,20.934,VALID,123.0,VALID,0.0,
2018-12-22, 01:24:06,VALID,918.112,VALID,0.0,VALID,94.495,VALID,-0.027,VALID,20.934,VALID,116.0,VALID,0.0,
2018-12-22, 01:25:06,VALID,918.097,VALID,0.0,VALID,94.468,VALID,-0.015,VALID,20.915,VALID,115.0,VALID,0.0,
2018-12-22, 01:26:06,VALID,918.099,VALID,0.0,VALID,94.486,VALID,0.001,VALID,20.887,VALID,113.0,VALID,0.0,
2018-12-22, 01:27:06,VALID,918.082,VALID,0.0,VALID,94.562,VALID,-0.007,VALID,20.865,VALID,110.0,VALID,0.0,
2018-12-22, 01:28:06,VALID,918.095,VALID,0.0,VALID,94.581,VALID,-0.006,VALID,20.847,VALID,90.0,VALID,0.0,
2018-12-22, 01:29:06,VALID,918.093,VALID,0.0,VALID,94.598,VALID,0.021,VALID,20.818,VALID,79.0,VALID,0.0,
2018-12-22, 01:30:06,VALID,918.091,VALID,0.0,VALID,94.73,VALID,0.009,VALID,20.795,VALID,82.0,VALID,0.0,
2018-12-22, 01:31:06,VALID,918.108,VALID,0.0,VALID,94.739,VALID,-0.017,VALID,20.768,VALID,94.0,VALID,0.0,
2018-12-22, 01:32:06,VALID,918.096,VALID,0.0,VALID,94.603,VALID,0.001,VALID,20.737,VALID,93.0,VALID,0.0,
2018-12-22, 01:33:06,VALID,918.128,VALID,0.0,VALID,94.459,VALID,-0.024,VALID,20.718,VALID,95.0,VALID,0.0,
2018-12-22, 01:34:06,VALID,918.127,VALID,0.0,VALID,94.212,VALID,-0.002,VALID,20.715,VALID,85.0,VALID,0.0,
2018-12-22, 01:35:06,VALID,918.138,VALID,0.0,VALID,94.088,VALID,-0.011,VALID,20.741,VALID,75.0,VALID,0.0,
2018-12-22, 01:36:06,VALID,918.133,VALID,0.0,VALID,94.251,VALID,-0.005,VALID,20.757,VALID,34.0,VALID,0.0,
2018-12-22, 01:37:06,VALID,918.12,VALID,0.0,VALID,94.486,VALID,-0.005,VALID,20.748,VALID,34.0,VALID,0.0,
2018-12-22, 01:38:06,VALID,918.13,VALID,0.0,VALID,94.648,VALID,-0.009,VALID,20.736,VALID,34.0,VALID,0.0,
2018-12-22, 01:39:06,VALID,918.094,VALID,0.0,VALID,94.666,VALID,-0.016,VALID,20.731,VALID,33.0,VALID,0.0,
2018-12-22, 01:40:06,VALID,918.086,VALID,0.0,VALID,94.729,VALID,-0.008,VALID,20.711,VALID,28.0,VALID,0.0,
2018-12-22, 01:41:06,VALID,918.07,VALID,0.0,VALID,94.986,VALID,-0.006,VALID,20.63,VALID,30.0,VALID,0.0,
2018-12-22, 01:42:06,VALID,918.064,VALID,0.0,VALID,95.56,VALID,-0.011,VALID,20.493,VALID,34.0,VALID,0.0,
2018-12-22, 01:43:06,VALID,918.037,VALID,0.0,VALID,96.187,VALID,0.0,VALID,20.4,VALID,29.0,VALID,0.0,
2018-12-22, 01:44:06,VALID,918.024,VALID,0.0,VALID,96.459,VALID,-0.016,VALID,20.355,VALID,32.0,VALID,0.0,
2018-12-22, 01:45:06,VALID,918.021,VALID,0.0,VALID,96.602,VALID,-0.012,VALID,20.317,VALID,38.0,VALID,0.0,
2018-12-22, 01:46:06,VALID,918.004,VALID,0.0,VALID,96.731,VALID,-0.008,VALID,20.287,VALID,39.0,VALID,0.0,
2018-12-22, 01:47:06,VALID,918.008,VALID,0.0,VALID,96.875,VALID,-0.015,VALID,20.264,VALID,43.0,VALID,0.0,
2018-12-22, 01:48:06,VALID,918.002,VALID,0.0,VALID,96.924,VALID,-0.004,VALID,20.246,VALID,40.0,VALID,0.0,
2018-12-22, 01:49:06,VALID,917.992,VALID,0.0,VALID,96.959,VALID,-0.002,VALID,20.254,VALID,54.0,VALID,0.0,
2018-12-22, 01:50:06,VALID,917.983,VALID,0.0,VALID,96.828,VALID,0.009,VALID,20.276,VALID,50.0,VALID,0.0,
2018-12-22, 01:51:06,VALID,917.98,VALID,0.0,VALID,96.725,VALID,0.007,VALID,20.297,VALID,30.0,VALID,0.0,
2018-12-22, 01:52:06,VALID,917.969,VALID,0.0,VALID,96.659,VALID,0.01,VALID,20.327,VALID,41.0,VALID,0.0,
2018-12-22, 01:53:06,VALID,917.958,VALID,0.0,VALID,96.54,VALID,0.016,VALID,20.348,VALID,48.0,VALID,0.0,
2018-12-22, 01:54:06,VALID,917.967,VALID,0.0,VALID,96.351,VALID,-0.004,VALID,20.361,VALID,47.0,VALID,0.0,
2018-12-22, 01:55:06,VALID,917.96,VALID,0.0,VALID,96.241,VALID,0.004,VALID,20.366,VALID,50.0,VALID,0.0,
2018-12-22, 01:56:06,VALID,917.946,VALID,0.0,VALID,96.156,VALID,-0.03,VALID,20.399,VALID,59.0,VALID,0.0,
2018-12-22, 01:57:06,VALID,917.936,VALID,0.0,VALID,95.802,VALID,-0.03,VALID,20.452,VALID,59.0,VALID,0.0,
2018-12-22, 01:58:06,VALID,917.916,VALID,0.0,VALID,95.377,VALID,-0.014,VALID,20.491,VALID,71.0,VALID,0.0,
2018-12-22, 01:59:06,VALID,917.901,VALID,0.0,VALID,94.909,VALID,-0.044,VALID,20.522,VALID,91.0,VALID,0.0,
2018-12-22, 02:00:06,VALID,917.874,VALID,0.0,VALID,94.462,VALID,-0.009,VALID,20.571,VALID,83.0,VALID,0.0,
2018-12-22, 02:01:06,VALID,917.871,VALID,0.0,VALID,94.252,VALID,-0.014,VALID,20.611,VALID,69.0,VALID,0.0,
2018-12-22, 02:02:06,VALID,917.852,VALID,0.0,VALID,94.119,VALID,-0.048,VALID,20.62,VALID,67.0,VALID,0.0,
2018-12-22, 02:03:06,VALID,917.83,VALID,0.0,VALID,94.209,VALID,-0.042,VALID,20.61,VALID,67.0,VALID,0.0,
2018-12-22, 02:04:06,VALID,917.801,VALID,0.0,VALID,94.264,VALID,-0.039,VALID,20.589,VALID,67.0,VALID,0.0,
2018-12-22, 02:05:06,VALID,917.783,VALID,0.0,VALID,94.316,VALID,-0.029,VALID,20.566,VALID,67.0,VALID,0.0,
2018-12-22, 02:06:06,VALID,917.757,VALID,0.0,VALID,94.1,VALID,-0.031,VALID,20.563,VALID,83.0,VALID,0.0,
2018-12-22, 02:07:06,VALID,917.758,VALID,0.0,VALID,93.797,VALID,-0.025,VALID,20.601,VALID,90.0,VALID,0.0,
2018-12-22, 02:08:06,VALID,917.744,VALID,0.0,VALID,93.471,VALID,-0.016,VALID,20.651,VALID,81.0,VALID,0.0,
2018-12-22, 02:09:06,VALID,917.744,VALID,0.0,VALID,93.671,VALID,-0.016,VALID,20.632,VALID,79.0,VALID,0.0,
2018-12-22, 02:10:06,VALID,917.749,VALID,0.0,VALID,93.854,VALID,0.001,VALID,20.606,VALID,60.0,VALID,0.0,
2018-12-22, 02:11:06,VALID,917.724,VALID,0.0,VALID,93.879,VALID,0.0,VALID,20.585,VALID,53.0,VALID,0.0,
2018-12-22, 02:12:06,VALID,917.744,VALID,0.0,VALID,93.674,VALID,-0.003,VALID,20.615,VALID,92.0,VALID,0.0,
2018-12-22, 02:13:06,VALID,917.738,VALID,0.0,VALID,93.181,VALID,-0.004,VALID,20.658,VALID,108.0,VALID,0.0,
2018-12-22, 02:14:06,VALID,917.736,VALID,0.0,VALID,92.745,VALID,-0.017,VALID,20.719,VALID,45.0,VALID,0.0,
2018-12-22, 02:15:06,VALID,917.727,VALID,0.0,VALID,92.645,VALID,-0.01,VALID,20.77,VALID,37.0,VALID,0.0,
2018-12-22, 02:16:06,VALID,917.727,VALID,0.0,VALID,92.668,VALID,-0.009,VALID,20.791,VALID,37.0,VALID,0.0,
2018-12-22, 02:17:06,VALID,917.74,VALID,0.0,VALID,92.944,VALID,-0.012,VALID,20.762,VALID,42.0,VALID,0.0,
2018-12-22, 02:18:06,VALID,917.757,VALID,0.0,VALID,92.897,VALID,-0.011,VALID,20.708,VALID,46.0,VALID,0.0,
2018-12-22, 02:19:06,VALID,917.732,VALID,0.0,VALID,93.276,VALID,-0.01,VALID,20.643,VALID,46.0,VALID,0.0,
2018-12-22, 02:20:06,VALID,917.731,VALID,0.0,VALID,93.267,VALID,-0.004,VALID,20.664,VALID,46.0,VALID,0.0,
2018-12-22, 02:21:06,VALID,917.743,VALID,0.0,VALID,92.967,VALID,-0.003,VALID,20.719,VALID,63.0,VALID,0.0,
2018-12-22, 02:22:06,VALID,917.746,VALID,0.0,VALID,92.707,VALID,0.009,VALID,20.779,VALID,74.0,VALID,0.0,
2018-12-22, 02:23:06,VALID,917.749,VALID,0.0,VALID,92.383,VALID,-0.014,VALID,20.828,VALID,72.0,VALID,0.0,
2018-12-22, 02:24:06,VALID,917.747,VALID,0.0,VALID,92.411,VALID,-0.011,VALID,20.8,VALID,68.0,VALID,0.0,
2018-12-22, 02:25:06,VALID,917.738,VALID,0.0,VALID,93.1,VALID,-0.013,VALID,20.695,VALID,68.0,VALID,0.0,
2018-12-22, 02:26:06,VALID,917.701,VALID,0.0,VALID,93.476,VALID,-0.004,VALID,20.594,VALID,79.0,VALID,0.0,
2018-12-22, 02:27:06,VALID,917.693,VALID,0.0,VALID,93.8,VALID,0.012,VALID,20.523,VALID,81.0,VALID,0.0,
2018-12-22, 02:28:06,VALID,917.673,VALID,0.0,VALID,93.815,VALID,-0.003,VALID,20.522,VALID,80.0,VALID,0.0,
2018-12-22, 02:29:06,VALID,917.643,VALID,0.0,VALID,93.746,VALID,0.007,VALID,20.532,VALID,78.0,VALID,0.0,
2018-12-22, 02:30:06,VALID,917.62,VALID,0.0,VALID,93.616,VALID,0.031,VALID,20.544,VALID,86.0,VALID,0.0,
2018-12-22, 02:31:06,VALID,917.586,VALID,0.0,VALID,93.405,VALID,0.033,VALID,20.573,VALID,89.0,VALID,0.0,
2018-12-22, 02:32:06,VALID,917.556,VALID,0.0,VALID,93.153,VALID,0.021,VALID,20.604,VALID,85.0,VALID,0.0,
2018-12-22, 02:33:06,VALID,917.532,VALID,0.0,VALID,93.026,VALID,0.015,VALID,20.612,VALID,84.0,VALID,0.0,
2018-12-22, 02:34:06,VALID,917.506,VALID,0.0,VALID,93.173,VALID,0.016,VALID,20.584,VALID,80.0,VALID,0.0,
2018-12-22, 02:35:06,VALID,917.48,VALID,0.0,VALID,93.432,VALID,0.016,VALID,20.54,VALID,80.0,VALID,0.0,
2018-12-22, 02:36:06,VALID,917.455,VALID,0.0,VALID,93.618,VALID,0.003,VALID,20.525,VALID,85.0,VALID,0.0,
2018-12-22, 02:37:06,VALID,917.408,VALID,0.0,VALID,93.597,VALID,0.008,VALID,20.524,VALID,100.0,VALID,0.0,
2018-12-22, 02:38:06,VALID,917.4,VALID,0.0,VALID,93.62,VALID,0.007,VALID,20.514,VALID,103.0,VALID,0.0,
2018-12-22, 02:39:06,VALID,917.382,VALID,0.0,VALID,93.664,VALID,0.025,VALID,20.484,VALID,105.0,VALID,0.0,
2018-12-22, 02:40:06,VALID,917.371,VALID,0.0,VALID,93.8,VALID,0.02,VALID,20.456,VALID,100.0,VALID,0.0,
2018-12-22, 02:41:06,VALID,917.376,VALID,0.0,VALID,93.993,VALID,-0.043,VALID,20.447,VALID,100.0,VALID,0.0,
2018-12-22, 02:42:06,VALID,917.363,VALID,0.0,VALID,94.006,VALID,-0.024,VALID,20.446,VALID,104.0,VALID,0.0,
2018-12-22, 02:43:06,VALID,917.365,VALID,0.0,VALID,94.048,VALID,-0.048,VALID,20.466,VALID,99.0,VALID,0.0,
2018-12-22, 02:44:06,VALID,917.36,VALID,0.0,VALID,93.99,VALID,-0.036,VALID,20.492,VALID,92.0,VALID,0.0,
2018-12-22, 02:45:06,VALID,917.357,VALID,0.0,VALID,93.887,VALID,-0.054,VALID,20.502,VALID,80.0,VALID,0.0,
2018-12-22, 02:46:06,VALID,917.345,VALID,0.0,VALID,93.938,VALID,-0.04,VALID,20.506,VALID,71.0,VALID,0.0,
2018-12-22, 02:47:06,VALID,917.339,VALID,0.0,VALID,93.917,VALID,-0.029,VALID,20.503,VALID,69.0,VALID,0.0,
2018-12-22, 02:48:06,VALID,917.322,VALID,0.0,VALID,94.05,VALID,-0.023,VALID,20.487,VALID,68.0,VALID,0.0,
2018-12-22, 02:49:06,VALID,917.288,VALID,0.0,VALID,94.161,VALID,-0.025,VALID,20.46,VALID,64.0,VALID,0.0,
2018-12-22, 02:50:06,VALID,917.277,VALID,0.0,VALID,94.327,VALID,-0.011,VALID,20.44,VALID,63.0,VALID,0.0,
2018-12-22, 02:51:06,VALID,917.258,VALID,0.0,VALID,94.428,VALID,-0.03,VALID,20.435,VALID,66.0,VALID,0.0,
2018-12-22, 02:52:06,VALID,917.227,VALID,0.0,VALID,94.508,VALID,-0.025,VALID,20.423,VALID,66.0,VALID,0.0,
2018-12-22, 02:53:06,VALID,917.205,VALID,0.0,VALID,94.584,VALID,-0.03,VALID,20.409,VALID,74.0,VALID,0.0,
2018-12-22, 02:54:06,VALID,917.197,VALID,0.0,VALID,94.649,VALID,-0.01,VALID,20.404,VALID,78.0,VALID,0.0,
2018-12-22, 02:55:06,VALID,917.182,VALID,0.0,VALID,94.624,VALID,-0.015,VALID,20.4,VALID,80.0,VALID,0.0,
2018-12-22, 02:56:06,VALID,917.166,VALID,0.0,VALID,94.636,VALID,0.027,VALID,20.394,VALID,81.0,VALID,0.0,
2018-12-22, 02:57:06,VALID,917.16,VALID,0.0,VALID,94.604,VALID,0.036,VALID,20.384,VALID,86.0,VALID,0.0,
2018-12-22, 02:58:06,VALID,917.154,VALID,0.0,VALID,94.586,VALID,0.03,VALID,20.365,VALID,86.0,VALID,0.0,
2018-12-22, 02:59:06,VALID,917.154,VALID,0.0,VALID,94.686,VALID,0.034,VALID,20.344,VALID,86.0,VALID,0.0,
2018-12-22, 03:00:06,VALID,917.146,VALID,0.0,VALID,94.742,VALID,0.029,VALID,20.322,VALID,87.0,VALID,0.0,
2018-12-22, 03:01:06,VALID,917.141,VALID,0.0,VALID,94.771,VALID,0.036,VALID,20.296,VALID,87.0,VALID,0.0,
2018-12-22, 03:02:06,VALID,917.143,VALID,0.0,VALID,94.845,VALID,0.023,VALID,20.27,VALID,87.0,VALID,0.0,
2018-12-22, 03:03:06,VALID,917.149,VALID,0.0,VALID,94.953,VALID,0.022,VALID,20.255,VALID,87.0,VALID,0.0,
2018-12-22, 03:04:06,VALID,917.128,VALID,0.0,VALID,94.97,VALID,0.019,VALID,20.244,VALID,87.0,VALID,0.0,
2018-12-22, 03:05:06,VALID,917.116,VALID,0.0,VALID,95.083,VALID,0.037,VALID,20.233,VALID,92.0,VALID,0.0,
2018-12-22, 03:06:06,VALID,917.099,VALID,0.0,VALID,95.358,VALID,0.04,VALID,20.218,VALID,93.0,VALID,0.0,
2018-12-22, 03:07:06,VALID,917.1,VALID,0.0,VALID,95.499,VALID,0.028,VALID,20.189,VALID,93.0,VALID,0.0,
2018-12-22, 03:08:06,VALID,917.088,VALID,0.0,VALID,95.479,VALID,0.039,VALID,20.154,VALID,93.0,VALID,0.0,
2018-12-22, 03:09:06,VALID,917.095,VALID,0.0,VALID,95.35,VALID,0.029,VALID,20.097,VALID,93.0,VALID,0.0,
2018-12-22, 03:10:06,VALID,917.102,VALID,0.0,VALID,95.444,VALID,0.019,VALID,20.064,VALID,93.0,VALID,0.0,
2018-12-22, 03:11:06,VALID,917.105,VALID,0.0,VALID,95.645,VALID,0.008,VALID,20.045,VALID,93.0,VALID,0.0,
2018-12-22, 03:12:06,VALID,917.107,VALID,0.0,VALID,96.001,VALID,0.011,VALID,20.037,VALID,93.0,VALID,0.0,
2018-12-22, 03:13:06,VALID,917.077,VALID,0.0,VALID,96.332,VALID,0.003,VALID,20.022,VALID,93.0,VALID,0.0,
2018-12-22, 03:14:06,VALID,917.098,VALID,0.0,VALID,96.391,VALID,-0.001,VALID,20.006,VALID,93.0,VALID,0.0,
2018-12-22, 03:15:06,VALID,917.062,VALID,0.0,VALID,96.519,VALID,-0.001,VALID,19.991,VALID,98.0,VALID,0.0,
2018-12-22, 03:16:06,VALID,917.068,VALID,0.0,VALID,96.505,VALID,-0.002,VALID,19.972,VALID,116.0,VALID,0.0,
2018-12-22, 03:17:06,VALID,917.044,VALID,0.0,VALID,96.144,VALID,-0.005,VALID,19.995,INVALID,360.0,VALID,0.0,
2018-12-22, 03:18:06,VALID,917.046,VALID,0.0,VALID,95.513,VALID,-0.001,VALID,20.079,INVALID,360.0,VALID,0.0,
2018-12-22, 03:19:06,VALID,917.042,VALID,0.0,VALID,94.706,VALID,-0.014,VALID,20.155,INVALID,360.0,VALID,0.0,
2018-12-22, 03:20:06,VALID,917.028,VALID,0.0,VALID,94.04,VALID,-0.016,VALID,20.223,INVALID,360.0,VALID,0.0,
2018-12-22, 03:21:06,VALID,917.022,VALID,0.0,VALID,93.691,VALID,-0.018,VALID,20.26,INVALID,360.0,VALID,0.0,
2018-12-22, 03:22:06,VALID,916.993,VALID,0.0,VALID,93.404,VALID,0.001,VALID,20.282,INVALID,360.0,VALID,0.0,
2018-12-22, 03:23:06,VALID,916.982,VALID,0.0,VALID,93.143,VALID,-0.016,VALID,20.316,INVALID,360.0,VALID,0.0,
2018-12-22, 03:24:06,VALID,916.992,VALID,0.0,VALID,92.828,VALID,0.007,VALID,20.375,INVALID,360.0,VALID,0.0,
2018-12-22, 03:25:06,VALID,916.978,VALID,0.0,VALID,92.645,VALID,0.008,VALID,20.412,INVALID,360.0,VALID,0.0,
2018-12-22, 03:26:06,VALID,916.959,VALID,0.0,VALID,92.565,VALID,-0.005,VALID,20.448,INVALID,360.0,VALID,0.0,
2018-12-22, 03:27:06,VALID,916.958,VALID,0.0,VALID,92.465,VALID,-0.004,VALID,20.473,INVALID,360.0,VALID,0.0,
2018-12-22, 03:28:06,VALID,916.942,VALID,0.0,VALID,92.367,VALID,-0.004,VALID,20.473,INVALID,360.0,VALID,0.0,
2018-12-22, 03:29:06,VALID,916.947,VALID,0.0,VALID,92.345,VALID,-0.006,VALID,20.453,INVALID,360.0,VALID,0.0,
2018-12-22, 03:30:06,VALID,916.938,VALID,0.0,VALID,92.462,VALID,0.005,VALID,20.423,INVALID,360.0,VALID,0.0,
2018-12-22, 03:31:06,VALID,916.922,VALID,0.0,VALID,92.652,VALID,-0.002,VALID,20.388,INVALID,360.0,VALID,0.0,
2018-12-22, 03:32:06,VALID,916.915,VALID,0.0,VALID,92.538,VALID,-0.0,VALID,20.333,INVALID,360.0,VALID,0.0,
2018-12-22, 03:33:06,VALID,916.914,VALID,0.0,VALID,92.79,VALID,0.016,VALID,20.269,INVALID,360.0,VALID,0.0,
2018-12-22, 03:34:06,VALID,916.907,VALID,0.0,VALID,93.333,VALID,-0.006,VALID,20.199,INVALID,360.0,VALID,0.0,
2018-12-22, 03:35:06,VALID,916.894,VALID,0.0,VALID,93.732,VALID,-0.003,VALID,20.158,INVALID,360.0,VALID,0.0,
2018-12-22, 03:36:06,VALID,916.903,VALID,0.0,VALID,93.888,VALID,-0.015,VALID,20.132,INVALID,360.0,VALID,0.0,
2018-12-22, 03:37:06,VALID,916.909,VALID,0.0,VALID,94.051,VALID,0.007,VALID,20.103,INVALID,360.0,VALID,0.0,
2018-12-22, 03:38:06,VALID,916.913,VALID,0.0,VALID,94.077,VALID,-0.007,VALID,20.073,INVALID,360.0,VALID,0.0,
2018-12-22, 03:39:06,VALID,916.939,VALID,0.0,VALID,94.003,VALID,-0.004,VALID,20.056,INVALID,360.0,VALID,0.0,
2018-12-22, 03:40:06,VALID,916.959,VALID,0.0,VALID,94.016,VALID,-0.011,VALID,20.045,INVALID,360.0,VALID,0.0,
2018-12-22, 03:41:06,VALID,916.972,VALID,0.0,VALID,93.9,VALID,0.012,VALID,20.039,INVALID,360.0,VALID,0.0,
2018-12-22, 03:42:06,VALID,916.979,VALID,0.0,VALID,93.785,VALID,0.006,VALID,20.02,INVALID,360.0,VALID,0.0,